Flag for Congo Weather past 2 weeks in Brazzaville, Congo

Now
73 °F

Scattered clouds.


Feels Like: 75 °F
Forecast: 66 / 85 °F
Wind: 7 mph from Southwest

Location: Brazzaville / Maya-Maya

Current Time: Jul 30, 2015 at 11:27:13 AM

Latest Report: Jul 30, 2015 at 10:00 AM


Visibility: N/A

Pressure: 30.09 "Hg

Humidity: 74%

Dew point: 64 °F

Location of BrazzavilleLocation

Historic Weather in Brazzaville — Graph

°F

Brazzaville temperature yesterday

Maximum temperature yesterday: 75 °F (at 11:00 AM)
Minimum temperature yesterday: 70 °F (at 4:00 AM)
Average temperature yesterday: 73 °F

Past Weeks' High & Low Weather Summary

 TemperatureHumidityPressure
High86 °F (Jul 23, 3:00 PM)94% (Jul 22, 6:53 AM)30.09 "Hg (Jul 22, 6:53 AM)
Low66 °F (Jul 30, 5:00 AM)52% (Jul 23, 3:00 PM)29.86 "Hg (Jul 15, 4:00 PM)
Average74 °F75%29.99 "Hg
* Reported Jul 15 10:00 AM — Jul 30 10:00 AM, Brazzaville, Weather by CustomWeather, © 2015

Note: Actual official high and low records may vary slightly from our data, if they occured in-between our weather recording intervals... More about our weather records

Advertising

Brazzaville weather history for previous 24 hours

 ConditionsComfort  
Time TempWeatherWind HumidityBarometerVisibility
10:00 AM
Thu, Jul 30
73 °FScattered clouds.7 mph74%30.09 "HgN/A
9:00 AM72 °FScattered clouds.5 mph78%30.09 "Hg6 mi
8:00 AM66 °FPassing clouds.2 mph94%30.04 "Hg4 mi
7:00 AM66 °FPassing clouds.2 mph94%30.04 "Hg4 mi
6:00 AM66 °FPassing clouds.No wind94%30.04 "HgN/A
5:00 AM66 °FPassing clouds.No wind94%30.04 "Hg5 mi
4:00 AM68 °FPassing clouds.2 mph88%30.01 "Hg5 mi
2:00 AM68 °FPassing clouds.1 mph88%30.04 "Hg5 mi
1:00 AM70 °FPassing clouds.1 mph83%30.04 "Hg5 mi
12:00 AM72 °FPassing clouds.3 mph78%30.04 "Hg5 mi
11:00 PM
Wed, Jul 29
72 °FPassing clouds.3 mph78%30.07 "Hg5 mi
10:00 PM72 °FPassing clouds.2 mph78%30.07 "Hg5 mi
8:00 PM73 °FPassing clouds.3 mph74%30.04 "Hg5 mi
7:00 PM73 °FPassing clouds.5 mph74%30.01 "Hg5 mi
6:00 PM75 °FMostly cloudy.7 mph69%30.01 "Hg6 mi
5:00 PM75 °FMostly cloudy.9 mph69%29.98 "HgN/A
4:00 PM75 °FMostly cloudy.10 mph69%29.98 "HgN/A
3:00 PM75 °FMostly cloudy.12 mph69%29.95 "HgN/A
2:00 PM75 °FMostly cloudy.10 mph69%29.98 "HgN/A
1:00 PM75 °FPartly sunny.9 mph69%30.01 "HgN/A
12:00 PM75 °FScattered clouds.8 mph69%30.04 "HgN/A
11:00 AM75 °FScattered clouds.14 mph69%30.07 "Hg5 mi
Weather by CustomWeather, © 2015

See weather overviewHow to use our weather pages